Time,TemperatureF,DewpointF,PressureIn,WindDirection,WindDirectionDegrees,WindSpeedMPH,WindSpeedGustMPH,Humidity,HourlyPrecipIn,Conditions,Clouds,dailyrainin,SolarRadiationWatts/m^2,SoftwareType,DateUTC
2013-02-22 00:11:00,29.0,10.0,-100.00,SW,216,0.0,9.0,45,0.00,,,0.00,0.000000,,2013-02-22 08:11:00,
2013-02-22 00:21:00,29.0,10.0,-100.00,SW,216,0.0,9.0,45,0.00,,,0.00,0.000000,,2013-02-22 08:21:00,
2013-02-22 00:31:00,29.0,10.0,-100.00,SW,216,0.0,9.0,45,0.00,,,0.00,0.000000,,2013-02-22 08:31:00,
2013-02-22 00:41:00,29.0,10.0,-100.00,SW,216,0.0,9.0,45,0.00,,,0.00,0.000000,,2013-02-22 08:41:00,
2013-02-22 01:11:00,29.0,11.0,-100.00,SSW,212,0.0,5.0,46,0.00,,,0.00,0.000000,,2013-02-22 09:11:00,
2013-02-22 01:21:00,29.0,11.0,-100.00,SSW,212,0.0,5.0,46,0.00,,,0.00,0.000000,,2013-02-22 09:21:00,
2013-02-22 01:31:00,29.0,11.0,-100.00,SSW,212,0.0,5.0,46,0.00,,,0.00,0.000000,,2013-02-22 09:31:00,
2013-02-22 01:41:00,29.0,11.0,-100.00,SSW,212,0.0,5.0,46,0.00,,,0.00,0.000000,,2013-02-22 09:41:00,
2013-02-22 02:11:00,29.0,16.0,-100.00,WNW,297,4.0,9.0,59,0.00,,,0.00,0.000000,,2013-02-22 10:11:00,
2013-02-22 02:21:00,29.0,16.0,-100.00,WNW,297,4.0,9.0,59,0.00,,,0.00,0.000000,,2013-02-22 10:21:00,
2013-02-22 02:31:00,29.0,16.0,-100.00,WNW,297,4.0,9.0,59,0.00,,,0.00,0.000000,,2013-02-22 10:31:00,
2013-02-22 02:42:00,29.0,16.0,-100.00,WNW,297,4.0,9.0,59,0.00,,,0.00,0.000000,,2013-02-22 10:42:00,
2013-02-22 03:11:00,31.0,18.0,-100.00,NNW,346,8.0,17.0,59,0.00,,,0.00,0.000000,,2013-02-22 11:11:00,
2013-02-22 03:21:00,31.0,18.0,-100.00,NNW,346,8.0,17.0,59,0.00,,,0.00,0.000000,,2013-02-22 11:21:00,
2013-02-22 03:32:00,31.0,18.0,-100.00,NNW,346,8.0,17.0,59,0.00,,,0.00,0.000000,,2013-02-22 11:32:00,
2013-02-22 03:42:00,31.0,18.0,-100.00,NNW,346,8.0,17.0,59,0.00,,,0.00,0.000000,,2013-02-22 11:42:00,
2013-02-22 04:11:00,29.0,17.0,-100.00,South,187,3.0,9.0,61,0.00,,,0.00,0.000000,,2013-02-22 12:11:00,
2013-02-22 04:21:00,29.0,17.0,-100.00,South,187,3.0,9.0,61,0.00,,,0.00,0.000000,,2013-02-22 12:21:00,
2013-02-22 04:32:00,29.0,17.0,-100.00,South,187,3.0,9.0,61,0.00,,,0.00,0.000000,,2013-02-22 12:32:00,
2013-02-22 04:42:00,29.0,17.0,-100.00,South,187,3.0,9.0,61,0.00,,,0.00,0.000000,,2013-02-22 12:42:00,
2013-02-22 05:11:00,26.0,15.0,-100.00,ENE,59,0.0,5.0,63,0.00,,,0.00,0.000000,,2013-02-22 13:11:00,
2013-02-22 05:22:00,26.0,15.0,-100.00,ENE,59,0.0,5.0,63,0.00,,,0.00,0.000000,,2013-02-22 13:22:00,
2013-02-22 05:31:00,26.0,15.0,-100.00,ENE,59,0.0,5.0,63,0.00,,,0.00,0.000000,,2013-02-22 13:31:00,
2013-02-22 05:41:00,26.0,15.0,-100.00,ENE,59,0.0,5.0,63,0.00,,,0.00,0.000000,,2013-02-22 13:41:00,
2013-02-22 06:11:00,23.0,15.0,-100.00,WSW,253,0.0,5.0,71,0.00,,,0.00,0.000000,,2013-02-22 14:11:00,
2013-02-22 06:21:00,23.0,15.0,-100.00,WSW,253,0.0,5.0,71,0.00,,,0.00,0.000000,,2013-02-22 14:21:00,
2013-02-22 06:32:00,23.0,15.0,-100.00,WSW,253,0.0,5.0,71,0.00,,,0.00,0.000000,,2013-02-22 14:32:00,
2013-02-22 06:41:00,23.0,15.0,-100.00,WSW,253,0.0,5.0,71,0.00,,,0.00,0.000000,,2013-02-22 14:41:00,
2013-02-22 07:11:00,21.0,13.0,-100.00,SSW,207,0.0,5.0,72,0.00,,,0.00,1.000000,,2013-02-22 15:11:00,
2013-02-22 07:21:00,21.0,13.0,-100.00,SSW,207,0.0,5.0,72,0.00,,,0.00,1.000000,,2013-02-22 15:21:00,
2013-02-22 07:32:00,21.0,13.0,-100.00,SSW,207,0.0,5.0,72,0.00,,,0.00,1.000000,,2013-02-22 15:32:00,
2013-02-22 07:41:00,21.0,13.0,-100.00,SSW,207,0.0,5.0,72,0.00,,,0.00,1.000000,,2013-02-22 15:41:00,
2013-02-22 08:12:00,32.0,20.0,-100.00,SW,234,5.0,7.0,61,0.00,,,0.00,88.000000,,2013-02-22 16:12:00,
2013-02-22 08:41:00,32.0,20.0,-100.00,SW,234,5.0,7.0,61,0.00,,,0.00,88.000000,,2013-02-22 16:41:00,
2013-02-22 09:11:00,38.0,23.0,-100.00,WSW,250,3.0,9.0,54,0.00,,,0.00,246.000000,,2013-02-22 17:11:00,
2013-02-22 09:21:00,38.0,23.0,-100.00,WSW,250,3.0,9.0,54,0.00,,,0.00,246.000000,,2013-02-22 17:21:00,
2013-02-22 09:31:00,38.0,23.0,-100.00,WSW,250,3.0,9.0,54,0.00,,,0.00,246.000000,,2013-02-22 17:31:00,
2013-02-22 09:41:00,38.0,23.0,-100.00,WSW,250,3.0,9.0,54,0.00,,,0.00,246.000000,,2013-02-22 17:41:00,
2013-02-22 10:12:00,41.0,19.0,-100.00,West,277,3.0,9.0,40,0.00,,,0.00,392.000000,,2013-02-22 18:12:00,
2013-02-22 10:22:00,41.0,19.0,-100.00,West,277,3.0,9.0,40,0.00,,,0.00,392.000000,,2013-02-22 18:22:00,
2013-02-22 10:32:00,41.0,19.0,-100.00,West,277,3.0,9.0,40,0.00,,,0.00,392.000000,,2013-02-22 18:32:00,
2013-02-22 10:42:00,41.0,19.0,-100.00,West,277,3.0,9.0,40,0.00,,,0.00,392.000000,,2013-02-22 18:42:00,
2013-02-22 11:01:00,44.0,18.0,-100.00,West,276,3.0,10.0,35,0.00,,,0.00,590.000000,,2013-02-22 19:01:00,
2013-02-22 11:11:00,44.0,18.0,-100.00,West,276,3.0,10.0,35,0.00,,,0.00,590.000000,,2013-02-22 19:11:00,
2013-02-22 11:21:00,44.0,18.0,-100.00,West,276,3.0,10.0,35,0.00,,,0.00,590.000000,,2013-02-22 19:21:00,
2013-02-22 11:31:00,44.0,18.0,-100.00,West,276,3.0,10.0,35,0.00,,,0.00,590.000000,,2013-02-22 19:31:00,
2013-02-22 11:41:00,44.0,18.0,-100.00,West,276,3.0,10.0,35,0.00,,,0.00,590.000000,,2013-02-22 19:41:00,
2013-02-22 12:11:00,47.0,17.0,-100.00,WNW,282,4.0,12.0,30,0.00,,,0.00,678.000000,,2013-02-22 20:11:00,
2013-02-22 12:21:00,47.0,17.0,-100.00,WNW,282,4.0,12.0,30,0.00,,,0.00,678.000000,,2013-02-22 20:21:00,
2013-02-22 12:31:00,47.0,17.0,-100.00,WNW,282,4.0,12.0,30,0.00,,,0.00,678.000000,,2013-02-22 20:31:00,
2013-02-22 12:41:00,47.0,17.0,-100.00,WNW,282,4.0,12.0,30,0.00,,,0.00,678.000000,,2013-02-22 20:41:00,
2013-02-22 13:11:00,51.0,16.0,-100.00,SW,233,5.0,11.0,25,0.00,,,0.00,714.000000,,2013-02-22 21:11:00,
2013-02-22 13:21:00,51.0,16.0,-100.00,SW,233,5.0,11.0,25,0.00,,,0.00,714.000000,,2013-02-22 21:21:00,
2013-02-22 13:31:00,51.0,16.0,-100.00,SW,233,5.0,11.0,25,0.00,,,0.00,714.000000,,2013-02-22 21:31:00,
2013-02-22 13:41:00,51.0,16.0,-100.00,SW,233,5.0,11.0,25,0.00,,,0.00,714.000000,,2013-02-22 21:41:00,
2013-02-22 14:11:00,54.0,17.0,-100.00,SW,232,2.0,10.0,23,0.00,,,0.00,684.000000,,2013-02-22 22:11:00,
2013-02-22 14:21:00,54.0,17.0,-100.00,SW,232,2.0,10.0,23,0.00,,,0.00,684.000000,,2013-02-22 22:21:00,
2013-02-22 14:31:00,54.0,17.0,-100.00,SW,232,2.0,10.0,23,0.00,,,0.00,684.000000,,2013-02-22 22:31:00,
2013-02-22 14:41:00,54.0,17.0,-100.00,SW,232,2.0,10.0,23,0.00,,,0.00,684.000000,,2013-02-22 22:41:00,
2013-02-22 15:11:00,52.0,14.0,-100.00,SW,215,3.0,10.0,22,0.00,,,0.00,442.000000,,2013-02-22 23:11:00,
2013-02-22 15:21:00,52.0,14.0,-100.00,SW,215,3.0,10.0,22,0.00,,,0.00,442.000000,,2013-02-22 23:21:00,
2013-02-22 15:31:00,52.0,14.0,-100.00,SW,215,3.0,10.0,22,0.00,,,0.00,442.000000,,2013-02-22 23:31:00,
2013-02-22 15:41:00,52.0,14.0,-100.00,SW,215,3.0,10.0,22,0.00,,,0.00,442.000000,,2013-02-22 23:41:00,
2013-02-22 16:11:00,52.0,10.0,-100.00,SSW,210,2.0,9.0,18,0.00,,,0.00,344.000000,,2013-02-23 00:11:00,
2013-02-22 16:21:00,52.0,10.0,-100.00,SSW,210,2.0,9.0,18,0.00,,,0.00,344.000000,,2013-02-23 00:21:00,
2013-02-22 16:31:00,52.0,10.0,-100.00,SSW,210,2.0,9.0,18,0.00,,,0.00,344.000000,,2013-02-23 00:31:00,
2013-02-22 16:41:00,52.0,10.0,-100.00,SSW,210,2.0,9.0,18,0.00,,,0.00,344.000000,,2013-02-23 00:41:00,
2013-02-22 17:11:00,53.0,8.0,-100.00,SW,231,4.0,11.0,16,0.00,,,0.00,227.000000,,2013-02-23 01:11:00,
2013-02-22 17:21:00,53.0,8.0,-100.00,SW,231,4.0,11.0,16,0.00,,,0.00,227.000000,,2013-02-23 01:21:00,
2013-02-22 17:31:00,53.0,8.0,-100.00,SW,231,4.0,11.0,16,0.00,,,0.00,227.000000,,2013-02-23 01:31:00,
2013-02-22 17:41:00,53.0,8.0,-100.00,SW,231,4.0,11.0,16,0.00,,,0.00,227.000000,,2013-02-23 01:41:00,
2013-02-22 18:11:00,45.0,6.0,-100.00,SSW,211,1.0,9.0,20,0.00,,,0.00,53.000000,,2013-02-23 02:11:00,
2013-02-22 19:11:00,45.0,9.0,-100.00,South,189,9.0,13.0,23,0.00,,,0.00,0.000000,,2013-02-23 03:11:00,
2013-02-22 19:21:00,45.0,9.0,-100.00,South,189,9.0,13.0,23,0.00,,,0.00,0.000000,,2013-02-23 03:21:00,
2013-02-22 19:31:00,45.0,9.0,-100.00,South,189,9.0,13.0,23,0.00,,,0.00,0.000000,,2013-02-23 03:31:00,
2013-02-22 19:41:00,45.0,9.0,-100.00,South,189,9.0,13.0,23,0.00,,,0.00,0.000000,,2013-02-23 03:41:00,
2013-02-22 20:11:00,43.0,14.0,-100.00,SSW,211,8.0,17.0,30,0.00,,,0.00,0.000000,,2013-02-23 04:11:00,
2013-02-22 20:21:00,43.0,14.0,-100.00,SSW,211,8.0,17.0,30,0.00,,,0.00,0.000000,,2013-02-23 04:21:00,
2013-02-22 20:31:00,43.0,14.0,-100.00,SSW,211,8.0,17.0,30,0.00,,,0.00,0.000000,,2013-02-23 04:31:00,
2013-02-22 20:41:00,43.0,14.0,-100.00,SSW,211,8.0,17.0,30,0.00,,,0.00,0.000000,,2013-02-23 04:41:00,
2013-02-22 21:12:00,44.0,13.0,-100.00,SSW,207,9.0,16.0,28,0.00,,,0.00,0.000000,,2013-02-23 05:12:00,
2013-02-22 21:22:00,44.0,13.0,-100.00,SSW,207,9.0,16.0,28,0.00,,,0.00,0.000000,,2013-02-23 05:22:00,
2013-02-22 21:32:00,44.0,13.0,-100.00,SSW,207,9.0,16.0,28,0.00,,,0.00,0.000000,,2013-02-23 05:32:00,
2013-02-22 21:41:00,44.0,13.0,-100.00,SSW,207,9.0,16.0,28,0.00,,,0.00,0.000000,,2013-02-23 05:41:00,
2013-02-22 22:11:00,45.0,13.0,-100.00,SSE,151,7.0,11.0,27,0.00,,,0.00,0.000000,,2013-02-23 06:11:00,
2013-02-22 22:22:00,45.0,13.0,-100.00,SSE,151,7.0,11.0,27,0.00,,,0.00,0.000000,,2013-02-23 06:22:00,
2013-02-22 22:31:00,45.0,13.0,-100.00,SSE,151,7.0,11.0,27,0.00,,,0.00,0.000000,,2013-02-23 06:31:00,
2013-02-22 22:41:00,45.0,13.0,-100.00,SSE,151,7.0,11.0,27,0.00,,,0.00,0.000000,,2013-02-23 06:41:00,
2013-02-22 23:11:00,44.0,12.0,-100.00,West,271,2.0,10.0,27,0.00,,,0.00,0.000000,,2013-02-23 07:11:00,
2013-02-22 23:21:00,44.0,12.0,-100.00,West,271,2.0,10.0,27,0.00,,,0.00,0.000000,,2013-02-23 07:21:00,
2013-02-22 23:31:00,44.0,12.0,-100.00,West,271,2.0,10.0,27,0.00,,,0.00,0.000000,,2013-02-23 07:31:00,
2013-02-22 23:41:00,44.0,12.0,-100.00,West,271,2.0,10.0,27,0.00,,,0.00,0.000000,,2013-02-23 07:41:00,